Weather History for Alliance, NE

Change the Weather History Date:

Sunday, February 24, 2013

  Actual Average Record
Temperature  
Mean Temperature 31 °F 29 °F  
Max Temperature 34 °F 44 °F 74 °F (1905)
Min Temperature 28 °F 15 °F -28 °F (2003)
Degree Days  
Heating Degree Days 34 36  
Month to date heating degree days 896 922  
Since 1 July heating degree days 4965 5267  
Cooling Degree Days 0 0  
Month to date cooling degree days 0 0  
Year to date cooling degree days 0 0  
Moisture  
Dew Point 27 °F    
Average Humidity 84    
Maximum Humidity 92    
Minimum Humidity 75    
Precipitation  
Precipitation T in 0.01 in 0.48 in (1930)
Month to date precipitation T 0.33  
Year to date precipitation 0.22 0.51  
Sea Level Pressure  
Sea Level Pressure 29.90 in    
Wind  
Wind Speed 12 mph (NNE)    
Max Wind Speed 24 mph    
Max Gust Speed 29 mph    
Visibility 4 miles    
Events Snow    
T = Trace of Precipitation, MM = Missing Value Source: NWS Daily Summary

Daily Weather History Graph

Daily Weather History Graph

Search for Another Location

Airport:

Trip Planner

Search our weather history database for the weather conditions in past years. The results will help you decide how hot, cold, wet, or windy it might be!

Date:

Astronomy

Feb. 24, 2013 Rise Set
Actual Time 6:33 AM MST 5:35 PM MST
Civil Twilight 6:05 AM MST 6:03 PM MST
Nautical Twilight 5:33 AM MST 6:36 PM MST
Astronomical Twilight 5:00 AM MST 7:08 PM MST
Moon 4:49 PM MST (2/24) 5:32 AM MST (2/24)
Length of Visible Light 11h 58m
Length of Day
11h 02m
Waxing Gibbous, 99% of the Moon is Illuminated
Feb 24
Waxing Gibbous
Feb 25
Full
Mar 4
Last Quarter
Mar 11
New
Mar 19
First Quarter

Hourly Weather History & Observations

Time (MST) Temp. Windchill Dew Point Humidity Pressure Visibility Wind Dir Wind Speed Gust Speed Precip Events Conditions
12:42 AM 33.8 °F 27.7 °F 28.4 °F 81% 29.73 in 3.0 mi North 6.9 mph - 0.00 in Snow Light Snow
12:53 AM 32.0 °F 26.4 °F 28.9 °F 88% 29.75 in 3.0 mi North 5.8 mph - 0.00 in Snow Light Snow
1:53 AM 33.1 °F 24.4 °F 28.0 °F 82% 29.75 in 9.0 mi North 11.5 mph - 0.00 in Snow Light Snow
2:32 AM 32.0 °F 23.6 °F 28.4 °F 87% 29.74 in 2.5 mi North 10.4 mph - 0.00 in Snow Light Snow
2:46 AM 32.0 °F 24.2 °F 28.4 °F 87% 29.74 in 1.5 mi North 9.2 mph - 0.00 in Snow Light Snow
2:53 AM 32.0 °F 24.2 °F 28.9 °F 88% 29.77 in 1.2 mi North 9.2 mph - 0.00 in Snow Light Snow
2:59 AM 30.2 °F 21.9 °F 28.4 °F 93% 29.75 in 1.0 mi North 9.2 mph - 0.00 in Snow Light Snow
3:30 AM 30.2 °F 20.8 °F 28.4 °F 93% 29.76 in 1.2 mi NNE 11.5 mph - 0.00 in Snow Light Snow
3:43 AM 30.2 °F 21.3 °F 28.4 °F 93% 29.76 in 1.8 mi North 10.4 mph - 0.00 in Snow Light Snow
3:49 AM 30.2 °F 21.9 °F 28.4 °F 93% 29.76 in 2.0 mi NNE 9.2 mph - 0.00 in Snow Light Snow
3:53 AM 30.9 °F 24.3 °F 27.0 °F 85% 29.79 in 3.0 mi North 6.9 mph - 0.00 in Snow Light Snow
4:30 AM 30.2 °F 18.9 °F 26.6 °F 86% 29.79 in 2.0 mi NNE 16.1 mph - 0.00 in Snow Light Snow
4:36 AM 30.2 °F 18.1 °F 26.6 °F 86% 29.79 in 1.2 mi North 18.4 mph - 0.00 in Snow Light Snow
4:51 AM 30.2 °F 18.9 °F 26.6 °F 86% 29.80 in 1.2 mi NNE 16.1 mph - 0.00 in Snow Light Snow
4:53 AM 30.0 °F 19.1 °F 27.0 °F 88% 29.84 in 1.2 mi NNE 15.0 mph - 0.00 in Snow Light Snow
5:03 AM 28.4 °F 18.0 °F 26.6 °F 93% 29.80 in 1.5 mi NNE 12.7 mph - 0.00 in Snow Light Snow
5:14 AM 28.4 °F 19.1 °F 26.6 °F 93% 29.81 in 2.5 mi NNE 10.4 mph - 0.00 in Snow Light Snow
5:22 AM 30.2 °F 21.9 °F 26.6 °F 86% 29.81 in 4.0 mi NNE 9.2 mph - 0.00 in Snow Light Snow
5:37 AM 28.4 °F 17.5 °F 26.6 °F 93% 29.82 in 2.0 mi NNE 13.8 mph - 0.00 in Snow Light Snow
5:44 AM 28.4 °F 17.5 °F 26.6 °F 93% 29.82 in 1.8 mi NNE 13.8 mph - 0.00 in Snow Light Snow
5:53 AM 28.9 °F 19.2 °F 27.0 °F 92% 29.88 in 1.5 mi NNE 11.5 mph - 0.00 in Snow Light Snow
6:06 AM 28.4 °F 17.0 °F 26.6 °F 93% 29.83 in 1.0 mi NNE 15.0 mph - 0.00 in Snow Light Snow
6:14 AM 28.4 °F 17.0 °F 26.6 °F 93% 29.83 in 1.0 mi NNE 15.0 mph - 0.00 in Snow Light Snow
6:41 AM 28.4 °F 15.8 °F 26.6 °F 93% 29.85 in 0.8 mi North 18.4 mph 23.0 mph 0.00 in Snow Light Snow
6:45 AM 28.4 °F 15.8 °F 26.6 °F 93% 29.85 in 1.0 mi North 18.4 mph 23.0 mph 0.00 in Snow Light Snow
6:53 AM 28.0 °F 15.7 °F 25.0 °F 88% 29.92 in 1.0 mi North 17.3 mph - 0.00 in Snow Light Snow
7:00 AM 28.4 °F 17.0 °F 24.8 °F 86% 29.85 in 1.2 mi North 15.0 mph - 0.00 in Snow Light Snow
7:16 AM 28.4 °F 16.6 °F 24.8 °F 86% 29.86 in 1.8 mi North 16.1 mph - 0.00 in Snow Light Snow
7:27 AM 28.4 °F 17.0 °F 24.8 °F 86% 29.87 in 2.0 mi NNE 15.0 mph - 0.00 in Snow Light Snow
7:34 AM 28.4 °F 17.5 °F 24.8 °F 86% 29.87 in 2.5 mi NNE 13.8 mph - 0.00 in Snow Light Snow
7:51 AM 28.4 °F 17.5 °F 26.6 °F 93% 29.88 in 2.0 mi NNE 13.8 mph - 0.00 in Snow Light Snow
7:53 AM 28.9 °F 18.2 °F 26.1 °F 89% 29.95 in 2.0 mi NNE 13.8 mph - 0.00 in Snow Light Snow
8:06 AM 28.4 °F 16.6 °F 26.6 °F 93% 29.88 in 5.0 mi NNE 16.1 mph - 0.00 in Snow Light Snow
8:35 AM 30.2 °F 20.8 °F 26.6 °F 86% 29.89 in 6.0 mi NNE 11.5 mph - 0.00 in Snow Light Snow
8:42 AM 30.2 °F 20.2 °F 26.6 °F 86% 29.90 in 6.0 mi NNE 12.7 mph - 0.00 in Snow Light Snow
8:53 AM 30.0 °F 19.1 °F 27.0 °F 88% 29.96 in 3.0 mi North 15.0 mph - 0.00 in Snow Light Snow
9:10 AM 30.2 °F 20.2 °F 26.6 °F 86% 29.90 in 4.0 mi NNE 12.7 mph - 0.00 in Snow Light Snow
9:53 AM 30.9 °F 19.1 °F 26.1 °F 82% 29.97 in 8.0 mi NNE 18.4 mph 23.0 mph 0.00 in   Overcast
10:13 AM 32.0 °F 20.1 °F 26.6 °F 80% 29.92 in 10.0 mi NNE 19.6 mph - N/A   Overcast
10:27 AM 32.0 °F 21.2 °F 26.6 °F 80% 29.92 in 10.0 mi NNE 16.1 mph - N/A   Overcast
10:39 AM 32.0 °F 20.5 °F 26.6 °F 80% 29.92 in 6.0 mi NNE 18.4 mph - 0.00 in Snow Light Snow
10:53 AM 32.0 °F 20.8 °F 27.0 °F 82% 29.98 in 3.0 mi NNE 17.3 mph - 0.00 in Snow Light Snow
10:58 AM 32.0 °F 20.5 °F 28.4 °F 87% 29.93 in 1.8 mi NNE 18.4 mph - 0.00 in Snow Light Snow
11:03 AM 32.0 °F 19.8 °F 28.4 °F 87% 29.93 in 2.0 mi NNE 20.7 mph - 0.00 in Snow Light Snow
11:27 AM 32.0 °F 20.1 °F 26.6 °F 80% 29.93 in 3.0 mi NNE 19.6 mph 27.6 mph 0.00 in Snow Light Snow
11:53 AM 32.0 °F 19.8 °F 28.0 °F 85% 29.99 in 5.0 mi NNE 20.7 mph - 0.00 in Snow Light Snow
12:28 PM 32.0 °F 20.1 °F 28.4 °F 87% 29.92 in 2.5 mi North 19.6 mph - 0.00 in Snow Light Snow
12:53 PM 33.1 °F 21.5 °F 27.0 °F 78% 29.98 in 5.0 mi NNE 19.6 mph 27.6 mph 0.00 in   Overcast
1:53 PM 33.1 °F 21.9 °F 27.0 °F 78% 29.99 in 8.0 mi NNE 18.4 mph - 0.00 in   Overcast
2:53 PM 32.0 °F 21.2 °F 27.0 °F 82% 30.01 in 4.0 mi NNE 16.1 mph - 0.00 in Snow Light Snow
3:53 PM 32.0 °F 21.2 °F 26.1 °F 79% 30.02 in 9.0 mi NNE 16.1 mph - 0.00 in   Overcast
4:53 PM 30.9 °F 20.2 °F 25.0 °F 79% 30.05 in 10.0 mi NNE 15.0 mph - N/A   Overcast
5:24 PM 30.2 °F 20.2 °F 24.8 °F 80% 30.00 in 10.0 mi North 12.7 mph - N/A   Overcast
5:53 PM 30.0 °F 20.5 °F 25.0 °F 82% 30.09 in 10.0 mi North 11.5 mph - N/A   Overcast
6:53 PM 28.9 °F 21.1 °F 26.1 °F 89% 30.12 in 10.0 mi North 8.1 mph - 0.00 in   Overcast
7:53 PM 28.9 °F 21.1 °F 25.0 °F 85% 30.14 in 10.0 mi North 8.1 mph - N/A   Overcast
8:53 PM 28.9 °F 21.1 °F 25.0 °F 85% 30.14 in 10.0 mi North 8.1 mph - N/A   Overcast
9:26 PM 28.4 °F 21.2 °F 24.8 °F 86% 30.07 in 10.0 mi North 6.9 mph - N/A   Overcast
9:53 PM 28.9 °F 21.9 °F 24.1 °F 82% 30.15 in 10.0 mi NNW 6.9 mph - N/A   Overcast
10:27 PM 28.4 °F 22.2 °F 24.8 °F 86% 30.07 in 10.0 mi NNW 5.8 mph - N/A   Overcast
10:53 PM 28.9 °F 25.2 °F 24.1 °F 82% 30.14 in 10.0 mi NW 3.5 mph - N/A   Overcast
11:53 PM 28.0 °F 24.2 °F 24.1 °F 85% 30.13 in 10.0 mi WNW 3.5 mph - N/A   Overcast